Track STARLINK-2533 now! 10-day predictions STARLINK-2533 is classified as:
1 48294U 21036U 22224.04987267 .00003106 00000-0 22734-3 0 9995 2 48294 53.0540 182.8660 0001603 66.7903 293.3254 15.06392887 72105